Date String (YYYY-MM-DD hh:mm:ss) UTC,Instrument flags,absolute air pressure of the measurement (hPa),sample flow rate (lpm),inlet stack bypass flow (lpm),air temperature of the measurement (°C),ambient temperature measured by the external sensor (°C),aerosol sample conditioner tube jacket temperature (°C),OPC LED temperature (°C),internal box temperature (°C),relative humidity of the measurement (%),span deviation,mass concentration of particles derived from Lorenz-Mie calculation of OPC scattering (μg/m³),mass concentration of particles derived from Lorenz-Mie calculation of OPC scattering (μg/m³),mass concentration of particles derived from Lorenz-Mie calculation of OPC scattering (μg/m³)
DateTimeUTC,F1_M11,P_M11,Q1_M11,Q2_M11,T1_M11,T2_M11,T3_M11,T4_M11,T5_M11,U1_M11,ZSPAN_M11,X0_M11,X2_M11,X1_M11
2024-04-17 15:00:00,SystemResetWarning,0825.9,4.99,000.00,026.4,025.7,000.0,034.8,028.2,015.8,0000.0,0013.80,0003.32,0002.02
2024-04-17 15:01:00,SystemResetWarning,0825.9,4.99,000.00,026.4,025.7,000.0,034.8,028.3,015.2,0000.0,0012.72,0003.30,0002.02
2024-04-17 15:02:00,SystemResetWarning,0825.9,5.00,000.00,026.4,025.7,000.0,034.8,028.3,015.2,0000.0,0012.69,0003.32,0002.01
2024-04-17 15:03:00,SystemResetWarning,0825.9,5.02,000.00,026.4,025.7,000.0,034.8,028.3,014.9,0000.0,0011.79,0003.29,0001.98
2024-04-17 15:04:00,SystemResetWarning,0825.9,4.99,000.00,026.4,025.7,000.0,034.8,028.3,014.1,0000.0,0011.83,0003.30,0001.96
2024-04-17 15:05:00,SystemResetWarning,0825.8,4.98,000.00,026.5,025.7,000.0,034.8,028.3,014.6,0000.0,0011.33,0003.29,0001.93
2024-04-17 15:06:00,SystemResetWarning,0825.9,5.00,000.00,026.5,025.8,000.0,034.9,028.3,014.5,0000.0,0010.73,0003.30,0001.90
2024-04-17 15:07:00,SystemResetWarning,0825.9,5.01,000.00,026.5,025.8,000.0,034.9,028.4,014.1,0000.0,0010.44,0003.30,0001.87
2024-04-17 15:08:00,SystemResetWarning,0825.9,5.00,000.00,026.5,025.8,000.0,034.9,028.4,013.8,0000.0,0010.93,0003.32,0001.84
2024-04-17 15:09:00,SystemResetWarning,0825.9,4.99,000.00,026.5,025.8,000.0,034.9,028.4,013.4,0000.0,0010.59,0003.30,0001.81
2024-04-17 15:10:00,SystemResetWarning,0825.8,5.00,000.00,026.5,025.8,000.0,034.9,028.4,013.4,0000.0,0010.23,0003.25,0001.77
2024-04-17 15:11:00,SystemResetWarning,0825.8,5.00,000.00,026.5,025.8,000.0,034.9,028.4,013.4,0000.0,0009.72,0003.22,0001.73
2024-04-17 15:12:00,SystemResetWarning,0825.8,5.01,000.00,026.5,025.8,000.0,034.9,028.4,013.4,0000.0,0009.83,0003.20,0001.70
2024-04-17 15:13:00,SystemResetWarning,0825.8,5.01,000.00,026.6,025.8,000.0,034.9,028.4,013.4,0000.0,0009.76,0003.16,0001.68
2024-04-17 15:14:00,SystemResetWarning,0825.8,5.00,000.00,026.6,025.8,000.0,035.0,028.4,013.2,0000.0,0009.48,0003.15,0001.67
2024-04-17 15:15:00,SystemResetWarning,0825.8,4.99,000.00,026.6,025.8,000.0,035.0,028.4,013.4,0000.0,0009.07,0003.14,0001.65
2024-04-17 15:16:00,SystemResetWarning,0825.8,5.00,000.00,026.6,025.9,000.0,035.0,028.4,013.2,0000.0,0009.10,0003.16,0001.65
2024-04-17 15:17:00,SystemResetWarning,0825.8,5.01,000.00,026.6,025.9,000.0,035.0,028.4,013.2,0000.0,0009.22,0003.15,0001.65
2024-04-17 15:18:00,SystemResetWarning,0825.7,5.01,000.00,026.6,025.9,000.0,035.0,028.5,013.1,0000.0,0009.02,0003.13,0001.63
2024-04-17 15:19:00,SystemResetWarning,0825.7,4.98,000.00,026.6,025.9,000.0,035.0,028.5,013.5,0000.0,0008.09,0003.10,0001.63
2024-04-17 15:20:00,SystemResetWarning,0825.7,5.00,000.00,026.6,025.9,000.0,035.0,028.5,013.7,0000.0,0007.78,0003.03,0001.61
2024-04-17 15:21:00,SystemResetWarning,0825.7,5.01,000.00,026.7,026.0,000.0,035.0,028.5,013.2,0000.0,0008.80,0002.98,0001.62
2024-04-17 15:22:00,SystemResetWarning,0825.7,5.02,000.00,026.7,026.0,000.0,035.0,028.5,013.1,0000.0,0008.67,0002.95,0001.62
2024-04-17 15:23:00,SystemResetWarning,0825.7,4.99,000.00,026.7,026.0,000.0,035.0,028.5,013.2,0000.0,0008.24,0002.93,0001.62
2024-04-17 15:24:00,SystemResetWarning,0825.7,4.99,000.00,026.7,026.0,000.0,035.1,028.5,013.0,0000.0,0008.12,0002.90,0001.60
2024-04-17 15:25:00,SystemResetWarning,0825.7,5.01,000.00,026.7,026.0,000.0,035.1,028.5,012.9,0000.0,0008.20,0002.94,0001.61
2024-04-17 15:26:00,SystemResetWarning,0825.6,5.00,000.00,026.7,026.0,000.0,035.1,028.5,013.0,0000.0,0008.10,0002.87,0001.62
2024-04-17 15:27:00,SystemResetWarning,0825.6,5.00,000.00,026.7,026.0,000.0,035.1,028.6,013.0,0000.0,0007.91,0002.77,0001.61
2024-04-17 15:28:00,SystemResetWarning,0825.6,5.00,000.00,026.8,026.0,000.0,035.1,028.6,012.9,0000.0,0007.60,0002.70,0001.61
2024-04-17 15:29:00,SystemResetWarning,0825.6,5.00,000.00,026.8,026.1,000.0,035.2,028.6,012.9,0000.0,0007.56,0002.66,0001.61
2024-04-17 15:30:00,SystemResetWarning,0825.6,4.97,000.00,026.7,024.9,000.0,035.2,027.9,012.8,0000.0,0007.52,0002.58,0001.60
2024-04-17 15:31:00,SystemResetWarning,0825.5,5.01,000.00,026.2,022.9,000.0,035.2,026.7,013.3,0000.0,0007.36,0002.60,0001.59
2024-04-17 15:32:00,SystemResetWarning,0825.4,5.01,000.00,025.9,022.7,000.0,035.1,026.5,013.4,0000.0,0005.15,0002.61,0001.60
2024-04-17 15:33:00,SystemResetWarning,0825.5,4.98,000.00,025.8,023.1,000.0,034.9,026.7,013.4,0000.0,0005.29,0002.69,0001.59
2024-04-17 15:34:00,SystemResetWarning,0825.5,4.99,000.00,025.8,023.4,000.0,034.8,027.0,013.5,0000.0,0005.34,0002.67,0001.57
2024-04-17 15:35:00,SystemResetWarning,0825.5,5.00,000.00,025.8,023.8,000.0,034.7,027.3,013.7,0000.0,0005.71,0002.65,0001.57
2024-04-17 15:36:00,SystemResetWarning,0825.5,5.01,000.00,025.8,024.1,000.0,034.6,027.4,013.5,0000.0,0005.94,0002.59,0001.56
2024-04-17 15:37:00,SystemResetWarning,0825.4,5.00,000.00,025.8,024.3,000.0,034.6,027.6,013.6,0000.0,0005.88,0002.64,0001.55
2024-04-17 15:38:00,SystemResetWarning,0825.5,5.00,000.00,025.9,024.5,000.0,034.5,027.6,013.9,0000.0,0006.25,0002.67,0001.54
2024-04-17 15:39:00,SystemResetWarning,0825.5,5.00,000.00,025.9,024.7,000.0,034.5,027.7,014.2,0000.0,0006.96,0002.68,0001.54
2024-04-17 15:40:00,SystemResetWarning,0825.5,5.00,000.00,025.9,024.9,000.0,034.5,027.8,013.9,0000.0,0007.32,0002.69,0001.53
2024-04-17 15:41:00,SystemResetWarning,0825.5,5.00,000.00,026.0,025.0,000.0,034.5,027.8,014.2,0000.0,0007.31,0002.69,0001.53
2024-04-17 15:42:00,SystemResetWarning,0825.5,5.00,000.00,026.0,025.1,000.0,034.5,027.9,013.8,0000.0,0007.49,0002.72,0001.53
2024-04-17 15:43:00,SystemResetWarning,0825.5,5.00,000.00,026.0,025.2,000.0,034.5,027.9,013.7,0000.0,0007.49,0002.70,0001.52
2024-04-17 15:44:00,SystemResetWarning,0825.5,5.00,000.00,026.1,025.3,000.0,034.5,027.9,013.2,0000.0,0007.66,0002.66,0001.51
2024-04-17 15:45:00,SystemResetWarning,0825.6,5.00,000.00,026.1,025.4,000.0,034.5,028.0,013.1,0000.0,0008.31,0002.68,0001.52
2024-04-17 15:46:00,SystemResetWarning,0825.6,5.00,000.00,026.1,025.4,000.0,034.5,028.0,013.1,0000.0,0008.64,0002.69,0001.53
2024-04-17 15:47:00,SystemResetWarning,0825.5,5.00,000.00,026.2,025.5,000.0,034.5,028.1,013.1,0000.0,0008.46,0002.70,0001.55
2024-04-17 15:48:00,SystemResetWarning,0825.4,5.00,000.00,026.2,025.5,000.0,034.5,028.1,013.2,0000.0,0008.62,0002.61,0001.55
2024-04-17 15:49:00,SystemResetWarning,0825.4,5.00,000.00,026.2,025.6,000.0,034.5,028.1,013.5,0000.0,0008.90,0002.61,0001.55
2024-04-17 15:50:00,SystemResetWarning,0825.4,5.00,000.00,026.3,025.6,000.0,034.6,028.2,013.8,0000.0,0008.42,0002.57,0001.55
2024-04-17 15:51:00,SystemResetWarning,0825.3,5.00,000.00,026.3,025.6,000.0,034.6,028.2,013.6,0000.0,0008.13,0002.55,0001.55
2024-04-17 15:52:00,SystemResetWarning,0825.3,5.00,000.00,026.3,025.7,000.0,034.6,028.2,013.3,0000.0,0008.07,0002.55,0001.55
2024-04-17 15:53:00,SystemResetWarning,0825.4,5.00,000.00,026.4,025.7,000.0,034.6,028.2,013.0,0000.0,0008.00,0002.61,0001.57
2024-04-17 15:54:00,SystemResetWarning,0825.3,5.00,000.00,026.4,025.7,000.0,034.7,028.3,013.1,0000.0,0007.96,0002.60,0001.56
2024-04-17 15:55:00,SystemResetWarning,0825.3,5.00,000.00,026.4,025.7,000.0,034.7,028.3,013.2,0000.0,0007.61,0002.55,0001.55
2024-04-17 15:56:00,SystemResetWarning,0825.4,5.00,000.00,026.4,025.7,000.0,034.7,028.2,013.1,0000.0,0006.62,0002.50,0001.56
2024-04-17 15:57:00,SystemResetWarning,0825.3,4.99,000.00,026.3,024.2,000.0,034.8,027.4,013.1,0000.0,0005.87,0002.55,0001.57
2024-04-17 15:58:00,SystemResetWarning,0825.3,5.02,000.00,025.8,022.7,000.0,034.8,026.4,013.3,0000.0,0006.54,0002.55,0001.56
2024-04-17 15:59:00,SystemResetWarning,0825.3,5.01,000.00,025.6,022.8,000.0,034.7,026.4,014.0,0000.0,0006.61,0002.65,0001.56
